Regional Weather Roundup
Issued by NWS

Home | Current Version | Previous Version | Graphics & Text | Print | Product List | Glossary On
Versions: 1 2 3 4 5 6 7 8 9 10 11 12 13 14 15 16 17 18 19 20 21 22 23 24 25 26 27 28 29 30 31 32 33 34 35 36 37 38 39 40 41 42 43 44 45 46 47 48 49 50
000
ASUS43 KLOT 192100
RWRIL

ILLINOIS REGIONAL WEATHER ROUNDUP
NATIONAL WEATHER SERVICE CHICAGO/ROMEOVILLE IL
400 PM CDT FRI SEP 19 2014

NOTE: "FAIR" INDICATES FEW OR NO CLOUDS BELOW 12,000 FEET WITH NO
SIGNIFICANT WEATHER AND/OR OBSTRUCTIONS TO VISIBILITY.

* THESE STATIONS ARE NOT UNDER NWS QUALITY CONTROL. THEY ALSO MAY NOT
  REPORT WEATHER SUCH AS PRECIPITATION OR FOG.

ILZ001-002-007-009-015-016-024-192200-
NORTHWEST ILLINOIS

CITY           SKY/WX    TMP DP  RH WIND       PRES   REMARKS
MOLINE         SUNNY     76  52  43 S10G21    29.97F
STERLING*      MOSUNNY   75  54  46 SW10      29.98F
$$

ILZ003-004-008-010-011-017-018-192200-
NORTH CENTRAL ILLINOIS

CITY           SKY/WX    TMP DP  RH WIND       PRES   REMARKS
ROCKFORD       PTSUNNY   75  49  39 S20       30.00F
FREEPORT*      MOSUNNY   73  51  46 S18G25    30.00F
ROCHELLE*      SUNNY     74  45  34 S20G26    30.01F
$$

ILZ005-006-012>014-019>023-192200-
NORTHEAST ILLINOIS

CITY           SKY/WX    TMP DP  RH WIND       PRES   REMARKS
CHICAGO-OHARE  MOSUNNY   77  44  30 S15G23    30.02F
CHICAGO-MIDWAY MOSUNNY   76  44  32 S14G23    30.02F
AURORA         SUNNY     75  45  34 S17G26    30.03F
LANSING*       SUNNY     73  46  37 S14       30.05F
WAUKEGAN       SUNNY     71  52  50 SE10      30.00F
DUPAGE AIRPORT SUNNY     75  46  35 S16       30.02F
WHEELING       SUNNY     75  43  31 S15       30.03F
NORTHERLY ISL    N/A     73  46  38 SE15        N/A
$$

LMZ740>746-192200-
SOUTHERN LAKE MICHIGAN

STATION/POSITION SKY/WX   TEMP    WIND        PRES    VSBY  WAVE
                          AIR SEA DIR/SP/G                  HT/PER
                          (F)     (DEG/KT/KT) (MB)    (MI)  (FT/S)
SOUTHERN BUOY              65 65  170/ 14/ 17 1018.6F         3/ 5
WAUKEGAN HARBOR            67     150/ 17/ 19   N/A
HARRISON CRIB              68     160/ 16/ 19   N/A
BURNHAM HARBOR             72     150/ 10/ 17   N/A
CALUMET HARBOR             73     160/  8/ 14 1016.3F
MICHIGAN CITY              70     120/ 11/ 15   N/A
MICHIGAN CITY 6N           70 65  160/ 10/ 16   N/A           1/ 2
ST. JOSEPH                 69 66  150/ 12/ 14   N/A           1/ 3
$$

ILZ025>027-034>036-040-047-049-050-058-095>099-192200-
WEST-CENTRAL ILLINOIS

CITY           SKY/WX    TMP DP  RH WIND       PRES   REMARKS
QUINCY         SUNNY     76  54  46 S13       30.00F
GALESBURG*     SUNNY     76  56  50 S12       30.01F
MACOMB*        SUNNY     76  53  43 S13       30.03S
$$

ILZ028>032-037-038-041>044-048-051>054-059>061-192200-
CENTRAL ILLINOIS

CITY           SKY/WX    TMP DP  RH WIND       PRES   REMARKS
DECATUR        SUNNY     77  48  35 S12       30.05F
PEORIA         SUNNY     78  52  40 S14       30.01F
SPRINGFIELD    SUNNY     77  54  44 SE10G20   30.03F
TAYLORVILLE    NOT AVBL
$$

ILZ033-039-045-046-055>057-062-063-192200-
EAST-CENTRAL ILLINOIS

CITY           SKY/WX    TMP DP  RH WIND       PRES   REMARKS
CHAMPAIGN      SUNNY     75  48  38 SE12      30.05F
MATTOON        SUNNY     74  51  44 SE9       30.05F
$$

ILZ079-100>102-192200-
SOUTHWEST ILLINOIS

CITY           SKY/WX    TMP DP  RH WIND       PRES   REMARKS
ALTON          MOSUNNY   77  52  41 S12       30.03F
BELLEVILLE     SUNNY     79  60  51 E7        30.02F HX  80
CAHOKIA*       MOSUNNY   79  57  46 S7        30.02F HX  80
SPARTA*        PTSUNNY   79  57  48 S6        30.03F HX  80
$$

ILZ064>066-069>071-074>076-080>082-084>086-088>090-092>094-192200-
SOUTH-CENTRAL ILLINOIS

CITY           SKY/WX    TMP DP  RH WIND       PRES   REMARKS
CARBONDALE     SUNNY     79  58  48 CALM      30.02F HX  80
MARION         MOSUNNY   81  57  44 S5        30.03F HX  81
MT. VERNON     SUNNY     79  55  44 SE7       30.04F
$$

ILZ067-068-072-073-078-083-087-091-192200-
SOUTHEAST ILLINOIS

CITY           SKY/WX    TMP DP  RH WIND       PRES   REMARKS
LAWRENCEVILLE  SUNNY     78  51  38 E7        30.05F
ROBINSON*      SUNNY     78  54  44 E10       30.06F
$$

ABBREVIATIONS USED IN REMARKS
   TC - TEMPERATURE IN CELSIUS
  WCI - WIND CHILL INDEX
   HX - HEAT INDEX
  VSB - VISIBILITY
$$




USA.gov is the U.S. government's official web portal to all federal, state and local government web resources and services.